Find Starlink 38121

NORAD ID: 100156 Int'l Des: 2026-171 Owner: SPXS Country: US Constellation: starlink operational

Aktuelle Ansicht

3D-Globus wird geladen...

About Starlink 38121

Starlink 38121 (NORAD 100156) is a starlink constellation satellite (v2 mini) launched Jul 24, 2026 by SPXS of US. with a mass of 575.00 kg.

Nächste Überflüge

Passes for default location (London). Set your location on the main map for personalized predictions.

Höhenverlauf

Loading altitude history...

Zweizeiliger Elementsatz

1 A0156U 26171J 26223.61060189 .00148213 00000-0 97742-3 0 9996
2 A0156 97.2833 255.2640 0002063 99.0663 261.0836 15.75188751 2695
Epoch: 11. Aug. 2026 • Age: 18 hours

Aktueller Status

Höhe 360.0 km
Apogäum / Perigäum N/A
Geschwindigkeit 7.69 km/s
Subsatellitenpunkt -40.83°S, 16.46°W
Startdatum 24. Juli 2026
Alter 18 days
Typ internet

Technische Details

Klassifizierung Payload
Masse 575.00 kg
Trockenmasse 530.00 kg
Gesamtmasse 575.00 kg
Länge 0.30 m
Durchmesser 4.10 m
Spannweite 29.00 m
Form Box + pan
Hersteller SPXS
Bus-Typ Starlink V2MO
Phasenstatus In Orbit
Besitzer/Staat SPXS/US

Most Searched